Time,TemperatureF,DewpointF,PressureIn,WindDirection,WindDirectionDegrees,WindSpeedMPH,WindSpeedGustMPH,Humidity,HourlyPrecipIn,Conditions,Clouds,dailyrainin,SoftwareType,DateUTC
2013-08-06 00:00:00,61.3,61.0,30.06,SSE,152,0.0,0.0,99,0.00,,,0.00,WeatherCatV1.20B785,2013-08-06 04:00:00,
2013-08-06 00:01:00,61.3,61.0,30.06,SSE,152,0.0,0.0,99,0.00,,,0.00,WeatherCatV1.20B785,2013-08-06 04:01:00,
2013-08-06 00:06:00,61.3,61.0,30.06,SSE,152,0.0,0.0,99,0.00,,,0.00,WeatherCatV1.20B785,2013-08-06 04:06:00,
2013-08-06 00:11:00,61.3,61.0,30.06,SSE,153,0.0,0.0,99,0.00,,,0.00,WeatherCatV1.20B785,2013-08-06 04:11:00,
2013-08-06 00:16:00,61.3,61.0,30.06,SSE,153,0.0,0.0,99,0.00,,,0.00,WeatherCatV1.20B785,2013-08-06 04:16:00,
2013-08-06 00:21:00,61.3,61.0,30.07,SSE,153,0.0,0.0,99,0.00,,,0.00,WeatherCatV1.20B785,2013-08-06 04:21:00,
2013-08-06 00:26:00,61.3,61.0,30.06,SSE,153,0.0,0.0,99,0.00,,,0.00,WeatherCatV1.20B785,2013-08-06 04:26:00,
2013-08-06 00:31:00,61.5,61.2,30.06,SSE,152,0.0,0.0,99,0.00,,,0.00,WeatherCatV1.20B785,2013-08-06 04:31:00,
2013-08-06 00:36:00,61.9,61.6,30.06,SSE,152,0.0,0.0,99,0.00,,,0.00,WeatherCatV1.20B785,2013-08-06 04:36:00,
2013-08-06 00:41:00,62.1,61.8,30.06,SSE,153,0.0,0.0,99,0.00,,,0.00,WeatherCatV1.20B785,2013-08-06 04:41:00,
2013-08-06 00:46:00,62.3,62.0,30.06,SSE,153,0.0,0.0,99,0.00,,,0.00,WeatherCatV1.20B785,2013-08-06 04:46:00,
2013-08-06 00:51:00,62.6,62.3,30.07,SSE,152,0.0,0.0,99,0.00,,,0.00,WeatherCatV1.20B785,2013-08-06 04:51:00,
2013-08-06 00:56:00,63.1,63.1,30.06,SSE,153,0.0,0.0,100,0.00,,,0.00,WeatherCatV1.20B785,2013-08-06 04:56:00,
2013-08-06 01:01:00,63.4,63.1,30.06,SSE,153,0.0,0.0,99,0.00,,,0.00,WeatherCatV1.20B785,2013-08-06 05:01:00,
2013-08-06 01:06:00,63.7,63.7,30.06,SSE,152,0.0,0.0,100,0.00,,,0.00,WeatherCatV1.20B785,2013-08-06 05:06:00,
2013-08-06 01:11:00,63.8,63.8,30.06,SSE,153,0.0,0.0,100,0.00,,,0.00,WeatherCatV1.20B785,2013-08-06 05:11:00,
2013-08-06 01:16:00,64.0,64.0,30.06,SSE,153,0.0,0.0,100,0.00,,,0.00,WeatherCatV1.20B785,2013-08-06 05:16:00,
2013-08-06 01:21:00,64.2,64.2,30.06,West,262,0.0,0.0,100,0.00,,,0.00,WeatherCatV1.20B785,2013-08-06 05:21:00,
2013-08-06 01:26:00,64.3,64.3,30.06,West,264,1.0,2.0,100,0.00,,,0.00,WeatherCatV1.20B785,2013-08-06 05:26:00,
2013-08-06 01:31:00,64.4,64.4,30.06,ENE,77,0.0,2.0,100,0.00,,,0.00,WeatherCatV1.20B785,2013-08-06 05:31:00,
2013-08-06 01:36:00,64.5,64.5,30.06,NNW,329,2.0,2.0,100,0.00,,,0.00,WeatherCatV1.20B785,2013-08-06 05:36:00,
2013-08-06 01:41:00,64.7,64.7,30.05,North,350,0.0,2.0,100,0.00,,,0.00,WeatherCatV1.20B785,2013-08-06 05:41:00,
2013-08-06 01:46:00,64.8,64.8,30.06,North,351,0.0,0.0,100,0.00,,,0.00,WeatherCatV1.20B785,2013-08-06 05:46:00,
2013-08-06 01:51:00,64.8,64.8,30.05,ENE,67,1.0,3.0,100,0.00,,,0.00,WeatherCatV1.20B785,2013-08-06 05:51:00,
2013-08-06 01:56:00,65.0,65.0,30.06,ENE,59,0.0,0.0,100,0.00,,,0.00,WeatherCatV1.20B785,2013-08-06 05:56:00,
2013-08-06 02:01:00,65.0,65.0,30.06,ENE,59,0.0,0.0,100,0.00,,,0.00,WeatherCatV1.20B785,2013-08-06 06:01:00,
2013-08-06 02:06:00,65.0,65.0,30.05,ESE,111,0.0,0.0,100,0.00,,,0.00,WeatherCatV1.20B785,2013-08-06 06:06:00,
2013-08-06 02:11:00,64.8,64.8,30.05,ESE,110,0.0,0.0,100,0.00,,,0.00,WeatherCatV1.20B785,2013-08-06 06:11:00,
2013-08-06 02:16:00,64.8,64.8,30.05,ESE,110,0.0,0.0,100,0.00,,,0.00,WeatherCatV1.20B785,2013-08-06 06:16:00,
2013-08-06 02:21:00,64.8,64.8,30.05,ESE,110,0.0,0.0,100,0.00,,,0.00,WeatherCatV1.20B785,2013-08-06 06:21:00,
2013-08-06 02:26:00,64.8,64.8,30.05,ESE,110,0.0,1.0,100,0.00,,,0.00,WeatherCatV1.20B785,2013-08-06 06:26:00,
2013-08-06 02:31:00,64.9,64.9,30.05,ESE,110,0.0,0.0,100,0.00,,,0.00,WeatherCatV1.20B785,2013-08-06 06:31:00,
2013-08-06 02:36:00,64.9,64.9,30.05,West,267,1.0,3.0,100,0.00,,,0.00,WeatherCatV1.20B785,2013-08-06 06:36:00,
2013-08-06 02:41:00,64.9,64.9,30.04,WNW,290,0.0,0.0,100,0.00,,,0.00,WeatherCatV1.20B785,2013-08-06 06:41:00,
2013-08-06 02:46:00,64.9,64.9,30.04,North,0,0.0,0.0,100,0.00,,,0.00,WeatherCatV1.20B785,2013-08-06 06:46:00,
2013-08-06 02:51:00,64.9,64.9,30.04,East,90,0.0,1.0,100,0.00,,,0.00,WeatherCatV1.20B785,2013-08-06 06:51:00,
2013-08-06 02:56:00,64.8,64.8,30.04,East,99,0.0,1.0,100,0.00,,,0.00,WeatherCatV1.20B785,2013-08-06 06:56:00,
2013-08-06 03:01:00,64.8,64.8,30.03,East,90,0.0,0.0,100,0.00,,,0.00,WeatherCatV1.20B785,2013-08-06 07:01:00,
2013-08-06 03:06:00,64.9,64.9,30.03,East,90,0.0,1.0,100,0.00,,,0.00,WeatherCatV1.20B785,2013-08-06 07:06:00,
2013-08-06 03:11:00,64.8,64.8,30.03,NNW,336,0.0,1.0,100,0.00,,,0.00,WeatherCatV1.20B785,2013-08-06 07:11:00,
2013-08-06 03:16:00,64.8,64.8,30.02,NNW,336,0.0,0.0,100,0.00,,,0.00,WeatherCatV1.20B785,2013-08-06 07:16:00,
2013-08-06 03:21:00,64.8,64.8,30.02,NNW,337,0.0,1.0,100,0.00,,,0.00,WeatherCatV1.20B785,2013-08-06 07:21:00,
2013-08-06 03:26:00,64.8,64.8,30.02,NNW,332,0.0,2.0,100,0.00,,,0.00,WeatherCatV1.20B785,2013-08-06 07:26:00,
2013-08-06 03:31:00,64.8,64.8,30.02,North,355,0.0,1.0,100,0.00,,,0.00,WeatherCatV1.20B785,2013-08-06 07:31:00,
2013-08-06 03:36:00,64.8,64.8,30.01,North,355,0.0,1.0,100,0.00,,,0.00,WeatherCatV1.20B785,2013-08-06 07:36:00,
2013-08-06 03:41:00,64.8,64.8,30.01,North,350,0.0,1.0,100,0.00,,,0.00,WeatherCatV1.20B785,2013-08-06 07:41:00,
2013-08-06 03:46:00,64.8,64.8,30.01,North,350,0.0,1.0,100,0.00,,,0.00,WeatherCatV1.20B785,2013-08-06 07:46:00,
2013-08-06 03:51:00,64.7,64.7,30.01,North,349,0.0,0.0,100,0.00,,,0.00,WeatherCatV1.20B785,2013-08-06 07:51:00,
2013-08-06 03:56:00,64.7,64.7,30.02,North,351,0.0,3.0,100,0.00,,,0.00,WeatherCatV1.20B785,2013-08-06 07:56:00,
2013-08-06 04:01:00,64.7,64.7,30.02,NW,324,0.0,2.0,100,0.00,,,0.00,WeatherCatV1.20B785,2013-08-06 08:01:00,
2013-08-06 04:06:00,64.6,64.6,30.02,NW,311,0.0,1.0,100,0.00,,,0.00,WeatherCatV1.20B785,2013-08-06 08:06:00,
2013-08-06 04:11:00,64.6,64.6,30.02,NW,312,0.0,1.0,100,0.00,,,0.00,WeatherCatV1.20B785,2013-08-06 08:11:00,
2013-08-06 04:16:00,64.6,64.6,30.02,NW,317,0.0,0.0,100,0.00,,,0.00,WeatherCatV1.20B785,2013-08-06 08:16:00,
2013-08-06 04:21:00,64.6,64.6,30.02,NW,317,0.0,0.0,100,0.00,,,0.00,WeatherCatV1.20B785,2013-08-06 08:21:00,
2013-08-06 04:26:00,64.5,64.5,30.02,NW,317,0.0,0.0,100,0.00,,,0.00,WeatherCatV1.20B785,2013-08-06 08:26:00,
2013-08-06 04:31:00,64.4,64.4,30.02,NW,317,0.0,0.0,100,0.00,,,0.00,WeatherCatV1.20B785,2013-08-06 08:31:00,
2013-08-06 04:36:00,64.3,64.3,30.02,NW,317,0.0,0.0,100,0.00,,,0.00,WeatherCatV1.20B785,2013-08-06 08:36:00,
2013-08-06 04:41:00,64.2,64.2,30.02,NW,317,0.0,0.0,100,0.00,,,0.00,WeatherCatV1.20B785,2013-08-06 08:41:00,
2013-08-06 04:46:00,64.2,64.2,30.02,NW,317,0.0,0.0,100,0.00,,,0.00,WeatherCatV1.20B785,2013-08-06 08:46:00,
2013-08-06 04:51:00,64.1,64.1,30.02,NW,317,0.0,0.0,100,0.00,,,0.00,WeatherCatV1.20B785,2013-08-06 08:51:00,
2013-08-06 04:56:00,64.0,64.0,30.02,NW,317,0.0,0.0,100,0.00,,,0.00,WeatherCatV1.20B785,2013-08-06 08:56:00,
2013-08-06 05:01:00,64.0,64.0,30.02,NW,317,1.0,1.0,100,0.00,,,0.00,WeatherCatV1.20B785,2013-08-06 09:01:00,
2013-08-06 05:06:00,64.0,64.0,30.02,NW,317,0.0,0.0,100,0.00,,,0.00,WeatherCatV1.20B785,2013-08-06 09:06:00,
2013-08-06 05:11:00,63.9,63.9,30.02,NW,317,0.0,0.0,100,0.00,,,0.00,WeatherCatV1.20B785,2013-08-06 09:11:00,
2013-08-06 05:16:00,63.8,63.8,30.02,NW,317,0.0,0.0,100,0.00,,,0.00,WeatherCatV1.20B785,2013-08-06 09:16:00,
2013-08-06 05:21:00,63.8,63.8,30.02,NW,317,0.0,0.0,100,0.00,,,0.00,WeatherCatV1.20B785,2013-08-06 09:21:00,
2013-08-06 05:26:00,63.7,63.7,30.02,NW,317,0.0,0.0,100,0.00,,,0.00,WeatherCatV1.20B785,2013-08-06 09:26:00,
2013-08-06 05:31:00,63.7,63.7,30.02,NW,317,0.0,0.0,100,0.00,,,0.00,WeatherCatV1.20B785,2013-08-06 09:31:00,
2013-08-06 05:36:00,63.7,63.7,30.02,NW,317,0.0,0.0,100,0.00,,,0.00,WeatherCatV1.20B785,2013-08-06 09:36:00,
2013-08-06 05:41:00,63.6,63.6,30.02,NW,317,0.0,0.0,100,0.00,,,0.00,WeatherCatV1.20B785,2013-08-06 09:41:00,
2013-08-06 05:46:00,63.6,63.3,30.02,NW,317,0.0,0.0,99,0.00,,,0.00,WeatherCatV1.20B785,2013-08-06 09:46:00,
2013-08-06 05:50:00,63.5,63.2,30.02,NW,317,0.0,0.0,99,0.00,,,0.00,WeatherCatV1.20B785,2013-08-06 09:50:00,
2013-08-06 05:55:00,63.5,63.2,30.02,NW,317,0.0,0.0,99,0.00,,,0.00,WeatherCatV1.20B785,2013-08-06 09:55:00,
2013-08-06 06:00:00,63.4,63.1,30.02,NW,317,0.0,2.0,99,0.00,,,0.00,WeatherCatV1.20B785,2013-08-06 10:00:00,
2013-08-06 06:05:00,63.3,63.0,30.02,NW,317,0.0,0.0,99,0.00,,,0.00,WeatherCatV1.20B785,2013-08-06 10:05:00,
2013-08-06 06:10:00,63.2,62.9,30.02,NW,317,0.0,1.0,99,0.00,,,0.00,WeatherCatV1.20B785,2013-08-06 10:10:00,
2013-08-06 06:15:00,63.2,62.9,30.02,NW,317,0.0,0.0,99,0.00,,,0.00,WeatherCatV1.20B785,2013-08-06 10:15:00,
2013-08-06 06:20:00,63.3,63.0,30.02,NW,317,0.0,0.0,99,0.00,,,0.00,WeatherCatV1.20B785,2013-08-06 10:20:00,
2013-08-06 06:25:00,63.2,62.9,30.02,NW,317,0.0,0.0,99,0.00,,,0.00,WeatherCatV1.20B785,2013-08-06 10:25:00,
2013-08-06 06:30:00,63.1,62.8,30.03,NW,317,0.0,0.0,99,0.00,,,0.00,WeatherCatV1.20B785,2013-08-06 10:30:00,
2013-08-06 06:35:00,63.0,62.7,30.03,NW,317,0.0,0.0,99,0.00,,,0.00,WeatherCatV1.20B785,2013-08-06 10:35:00,
2013-08-06 06:40:00,62.9,62.6,30.03,NW,317,0.0,0.0,99,0.00,,,0.00,WeatherCatV1.20B785,2013-08-06 10:40:00,
2013-08-06 06:45:00,62.8,62.5,30.03,NW,317,0.0,0.0,99,0.00,,,0.00,WeatherCatV1.20B785,2013-08-06 10:45:00,
2013-08-06 06:50:00,62.8,62.5,30.04,NW,317,0.0,0.0,99,0.00,,,0.00,WeatherCatV1.20B785,2013-08-06 10:50:00,
2013-08-06 06:55:00,62.8,62.5,30.04,NW,317,0.0,1.0,99,0.00,,,0.00,WeatherCatV1.20B785,2013-08-06 10:55:00,
2013-08-06 07:00:00,62.8,62.5,30.04,NW,317,0.0,0.0,99,0.00,,,0.00,WeatherCatV1.20B785,2013-08-06 11:00:00,
2013-08-06 07:05:00,62.7,62.4,30.04,NW,317,0.0,0.0,99,0.00,,,0.00,WeatherCatV1.20B785,2013-08-06 11:05:00,
2013-08-06 07:10:00,62.7,62.4,30.05,NW,317,0.0,0.0,99,0.00,,,0.00,WeatherCatV1.20B785,2013-08-06 11:10:00,
2013-08-06 07:15:00,62.7,62.4,30.05,NW,317,0.0,0.0,99,0.00,,,0.00,WeatherCatV1.20B785,2013-08-06 11:15:00,
2013-08-06 07:20:00,62.8,62.5,30.05,NW,317,0.0,0.0,99,0.00,,,0.00,WeatherCatV1.20B785,2013-08-06 11:20:00,
2013-08-06 07:25:00,62.8,62.5,30.05,NW,317,0.0,0.0,99,0.00,,,0.00,WeatherCatV1.20B785,2013-08-06 11:25:00,
2013-08-06 07:30:00,62.8,62.5,30.05,NW,317,0.0,0.0,99,0.00,,,0.00,WeatherCatV1.20B785,2013-08-06 11:30:00,
2013-08-06 07:35:00,63.0,62.7,30.05,NW,317,0.0,0.0,99,0.00,,,0.00,WeatherCatV1.20B785,2013-08-06 11:35:00,
2013-08-06 07:40:00,63.2,62.9,30.05,NW,317,0.0,0.0,99,0.00,,,0.00,WeatherCatV1.20B785,2013-08-06 11:40:00,
2013-08-06 07:45:00,63.3,63.0,30.06,NW,317,0.0,0.0,99,0.00,,,0.00,WeatherCatV1.20B785,2013-08-06 11:45:00,
2013-08-06 07:50:00,63.5,63.2,30.06,NW,317,0.0,0.0,99,0.00,,,0.00,WeatherCatV1.20B785,2013-08-06 11:50:00,
2013-08-06 07:55:00,63.6,63.3,30.06,NW,317,0.0,0.0,99,0.00,,,0.00,WeatherCatV1.20B785,2013-08-06 11:55:00,
2013-08-06 08:00:00,63.7,63.4,30.06,NW,317,0.0,1.0,99,0.00,,,0.00,WeatherCatV1.20B785,2013-08-06 12:00:00,
2013-08-06 08:05:00,63.7,63.4,30.07,NW,317,0.0,0.0,99,0.00,,,0.00,WeatherCatV1.20B785,2013-08-06 12:05:00,
2013-08-06 08:10:00,63.8,63.5,30.07,NW,317,0.0,3.0,99,0.00,,,0.00,WeatherCatV1.20B785,2013-08-06 12:10:00,
2013-08-06 08:15:00,63.7,63.4,30.07,NW,318,2.0,3.0,99,0.00,,,0.00,WeatherCatV1.20B785,2013-08-06 12:15:00,
2013-08-06 08:20:00,63.8,63.5,30.07,NW,321,0.0,3.0,99,0.00,,,0.00,WeatherCatV1.20B785,2013-08-06 12:20:00,
2013-08-06 08:25:00,63.9,63.6,30.08,NW,321,0.0,1.0,99,0.00,,,0.00,WeatherCatV1.20B785,2013-08-06 12:25:00,
2013-08-06 08:30:00,64.1,63.8,30.08,NW,321,0.0,1.0,99,0.00,,,0.00,WeatherCatV1.20B785,2013-08-06 12:30:00,
2013-08-06 08:35:00,64.3,64.0,30.07,NW,321,0.0,1.0,99,0.00,,,0.00,WeatherCatV1.20B785,2013-08-06 12:35:00,
2013-08-06 08:40:00,64.4,64.1,30.07,NW,321,0.0,0.0,99,0.00,,,0.00,WeatherCatV1.20B785,2013-08-06 12:40:00,
2013-08-06 08:45:00,64.4,64.1,30.07,NW,321,0.0,0.0,99,0.00,,,0.00,WeatherCatV1.20B785,2013-08-06 12:45:00,
2013-08-06 08:50:00,64.3,64.0,30.07,NW,321,0.0,1.0,99,0.00,,,0.00,WeatherCatV1.20B785,2013-08-06 12:50:00,
2013-08-06 08:55:00,64.1,63.8,30.07,NW,321,0.0,1.0,99,0.00,,,0.00,WeatherCatV1.20B785,2013-08-06 12:55:00,
2013-08-06 09:00:00,63.6,63.0,30.07,NW,321,0.0,0.0,98,0.00,,,0.00,WeatherCatV1.20B785,2013-08-06 13:00:00,
2013-08-06 09:05:00,63.3,62.4,30.07,NW,321,0.0,0.0,97,0.00,,,0.00,WeatherCatV1.20B785,2013-08-06 13:05:00,
2013-08-06 09:10:00,63.2,62.3,30.07,NW,321,0.0,0.0,97,0.00,,,0.00,WeatherCatV1.20B785,2013-08-06 13:10:00,
2013-08-06 09:15:00,63.2,62.3,30.07,NW,321,0.0,0.0,97,0.00,,,0.00,WeatherCatV1.20B785,2013-08-06 13:15:00,
2013-08-06 09:20:00,63.1,61.9,30.07,NW,321,0.0,1.0,96,0.00,,,0.00,WeatherCatV1.20B785,2013-08-06 13:20:00,
2013-08-06 09:25:00,63.3,62.1,30.07,NW,321,0.0,0.0,96,0.00,,,0.00,WeatherCatV1.20B785,2013-08-06 13:25:00,
2013-08-06 09:30:00,63.4,62.2,30.08,NW,321,0.0,0.0,96,0.00,,,0.00,WeatherCatV1.20B785,2013-08-06 13:30:00,
2013-08-06 09:35:00,63.5,62.3,30.08,NW,321,0.0,0.0,96,0.00,,,0.00,WeatherCatV1.20B785,2013-08-06 13:35:00,
2013-08-06 09:40:00,63.6,62.4,30.07,NW,321,0.0,0.0,96,0.00,,,0.00,WeatherCatV1.20B785,2013-08-06 13:40:00,
2013-08-06 09:46:00,63.8,62.3,30.08,NW,321,0.0,0.0,95,0.00,,,0.00,WeatherCatV1.20B785,2013-08-06 13:46:00,
2013-08-06 09:51:00,64.0,62.8,30.08,NW,321,0.0,0.0,96,0.00,,,0.00,WeatherCatV1.20B785,2013-08-06 13:51:00,
2013-08-06 09:56:00,64.0,62.5,30.08,NW,321,0.0,0.0,95,0.00,,,0.00,WeatherCatV1.20B785,2013-08-06 13:56:00,
2013-08-06 10:01:00,64.2,62.7,30.08,NW,321,0.0,0.0,95,0.00,,,0.00,WeatherCatV1.20B785,2013-08-06 14:01:00,
2013-08-06 10:06:00,64.2,62.7,30.08,NW,321,0.0,0.0,95,0.00,,,0.00,WeatherCatV1.20B785,2013-08-06 14:06:00,
2013-08-06 10:11:00,64.3,62.5,30.08,NW,321,0.0,0.0,94,0.00,,,0.00,WeatherCatV1.20B785,2013-08-06 14:11:00,
2013-08-06 10:16:00,64.8,63.3,30.09,NW,321,0.0,1.0,95,0.00,,,0.00,WeatherCatV1.20B785,2013-08-06 14:16:00,
2013-08-06 10:21:00,65.1,62.7,30.09,NNE,13,6.0,7.0,92,0.00,,,0.00,WeatherCatV1.20B785,2013-08-06 14:21:00,
2013-08-06 10:26:00,65.6,62.6,30.09,NNE,13,0.0,0.0,90,0.00,,,0.00,WeatherCatV1.20B785,2013-08-06 14:26:00,
2013-08-06 10:31:00,65.7,63.0,30.09,NNE,13,0.0,0.0,91,0.00,,,0.00,WeatherCatV1.20B785,2013-08-06 14:31:00,
2013-08-06 10:36:00,65.8,63.1,30.09,NNE,13,0.0,1.0,91,0.00,,,0.00,WeatherCatV1.20B785,2013-08-06 14:36:00,
2013-08-06 10:41:00,66.5,63.8,30.09,NNE,13,3.0,3.0,91,0.00,,,0.00,WeatherCatV1.20B785,2013-08-06 14:41:00,
2013-08-06 10:46:00,67.2,63.5,30.09,West,259,0.0,5.0,88,0.00,,,0.00,WeatherCatV1.20B785,2013-08-06 14:46:00,
2013-08-06 10:51:00,67.9,64.2,30.09,West,281,0.0,2.0,88,0.00,,,0.00,WeatherCatV1.20B785,2013-08-06 14:51:00,
2013-08-06 10:56:00,68.2,63.8,30.09,WNW,284,0.0,2.0,86,0.00,,,0.00,WeatherCatV1.20B785,2013-08-06 14:56:00,
2013-08-06 11:01:00,68.8,63.8,30.09,WNW,284,0.0,1.0,84,0.00,,,0.00,WeatherCatV1.20B785,2013-08-06 15:01:00,
2013-08-06 11:06:00,69.4,63.3,30.08,WNW,287,0.0,1.0,81,0.00,,,0.00,WeatherCatV1.20B785,2013-08-06 15:06:00,
2013-08-06 11:11:00,70.2,64.4,30.08,North,9,0.0,5.0,82,0.00,,,0.00,WeatherCatV1.20B785,2013-08-06 15:11:00,
2013-08-06 11:16:00,70.8,65.0,30.08,North,9,2.0,3.0,82,0.00,,,0.00,WeatherCatV1.20B785,2013-08-06 15:16:00,
2013-08-06 11:21:00,71.3,64.8,30.08,North,9,0.0,0.0,80,0.00,,,0.00,WeatherCatV1.20B785,2013-08-06 15:21:00,
2013-08-06 11:26:00,71.3,65.5,30.08,North,9,0.0,1.0,82,0.00,,,0.00,WeatherCatV1.20B785,2013-08-06 15:26:00,
2013-08-06 11:31:00,71.6,65.1,30.08,North,9,0.0,0.0,80,0.00,,,0.00,WeatherCatV1.20B785,2013-08-06 15:31:00,
2013-08-06 11:36:00,71.7,64.8,30.08,North,9,0.0,1.0,79,0.00,,,0.00,WeatherCatV1.20B785,2013-08-06 15:36:00,
2013-08-06 11:41:00,71.5,64.6,30.08,North,9,0.0,4.0,79,0.00,,,0.00,WeatherCatV1.20B785,2013-08-06 15:41:00,
2013-08-06 11:46:00,71.2,64.7,30.08,North,9,0.0,1.0,80,0.00,,,0.00,WeatherCatV1.20B785,2013-08-06 15:46:00,
2013-08-06 11:51:00,70.9,64.4,30.09,North,9,0.0,0.0,80,0.00,,,0.00,WeatherCatV1.20B785,2013-08-06 15:51:00,
2013-08-06 11:56:00,70.5,64.0,30.09,North,9,0.0,1.0,80,0.00,,,0.00,WeatherCatV1.20B785,2013-08-06 15:56:00,
2013-08-06 12:01:00,70.1,63.6,30.09,North,9,0.0,1.0,80,0.00,,,0.00,WeatherCatV1.20B785,2013-08-06 16:01:00,
2013-08-06 12:06:00,69.9,63.8,30.09,North,9,0.0,0.0,81,0.00,,,0.00,WeatherCatV1.20B785,2013-08-06 16:06:00,
2013-08-06 12:11:00,69.8,64.1,30.09,North,9,0.0,0.0,82,0.00,,,0.00,WeatherCatV1.20B785,2013-08-06 16:11:00,
2013-08-06 12:16:00,69.3,63.6,30.09,North,9,0.0,0.0,82,0.00,,,0.00,WeatherCatV1.20B785,2013-08-06 16:16:00,
2013-08-06 12:21:00,69.0,63.6,30.09,North,9,0.0,4.0,83,0.00,,,0.00,WeatherCatV1.20B785,2013-08-06 16:21:00,
2013-08-06 12:26:00,68.5,63.8,30.09,North,9,0.0,3.0,85,0.00,,,0.00,WeatherCatV1.20B785,2013-08-06 16:26:00,
2013-08-06 12:31:00,68.3,63.6,30.09,North,9,0.0,1.0,85,0.00,,,0.00,WeatherCatV1.20B785,2013-08-06 16:31:00,
2013-08-06 12:36:00,68.2,63.5,30.09,North,9,0.0,0.0,85,0.00,,,0.00,WeatherCatV1.20B785,2013-08-06 16:36:00,
2013-08-06 12:41:00,68.6,64.6,30.09,North,9,0.0,0.0,87,0.00,,,0.00,WeatherCatV1.20B785,2013-08-06 16:41:00,
2013-08-06 12:46:00,69.2,63.1,30.09,North,9,0.0,0.0,81,0.00,,,0.00,WeatherCatV1.20B785,2013-08-06 16:46:00,
2013-08-06 12:51:00,70.0,63.5,30.09,North,9,0.0,0.0,80,0.00,,,0.00,WeatherCatV1.20B785,2013-08-06 16:51:00,
2013-08-06 12:56:00,70.5,65.1,30.09,North,9,0.0,1.0,83,0.00,,,0.00,WeatherCatV1.20B785,2013-08-06 16:56:00,
2013-08-06 13:01:00,70.8,65.4,30.09,North,9,0.0,1.0,83,0.00,,,0.00,WeatherCatV1.20B785,2013-08-06 17:01:00,
2013-08-06 13:06:00,70.2,64.4,30.09,North,9,0.0,0.0,82,0.00,,,0.00,WeatherCatV1.20B785,2013-08-06 17:06:00,
2013-08-06 13:11:00,70.1,64.0,30.09,North,9,0.0,0.0,81,0.00,,,0.00,WeatherCatV1.20B785,2013-08-06 17:11:00,
2013-08-06 13:16:00,70.6,64.8,30.09,North,9,1.0,1.0,82,0.00,,,0.00,WeatherCatV1.20B785,2013-08-06 17:16:00,
2013-08-06 13:21:00,70.9,65.5,30.08,North,9,0.0,1.0,83,0.00,,,0.00,WeatherCatV1.20B785,2013-08-06 17:21:00,
2013-08-06 13:26:00,71.3,65.9,30.08,North,9,0.0,0.0,83,0.00,,,0.00,WeatherCatV1.20B785,2013-08-06 17:26:00,
2013-08-06 13:31:00,71.9,63.9,30.08,North,9,0.0,0.0,76,0.00,,,0.00,WeatherCatV1.20B785,2013-08-06 17:31:00,
2013-08-06 13:36:00,72.5,64.5,30.08,North,9,0.0,0.0,76,0.00,,,0.00,WeatherCatV1.20B785,2013-08-06 17:36:00,
2013-08-06 13:41:00,73.0,64.2,30.08,North,9,0.0,0.0,74,0.00,,,0.00,WeatherCatV1.20B785,2013-08-06 17:41:00,
2013-08-06 13:47:00,73.1,65.8,30.08,North,9,0.0,0.0,78,0.00,,,0.00,WeatherCatV1.20B785,2013-08-06 17:47:00,
2013-08-06 13:52:00,73.1,65.8,30.08,North,9,0.0,0.0,78,0.00,,,0.00,WeatherCatV1.20B785,2013-08-06 17:52:00,
2013-08-06 13:57:00,72.9,66.4,30.08,North,9,0.0,0.0,80,0.00,,,0.00,WeatherCatV1.20B785,2013-08-06 17:57:00,
2013-08-06 14:02:00,72.8,67.3,30.08,North,9,0.0,1.0,83,0.00,,,0.00,WeatherCatV1.20B785,2013-08-06 18:02:00,
2013-08-06 14:07:00,72.3,66.1,30.08,North,9,0.0,1.0,81,0.00,,,0.00,WeatherCatV1.20B785,2013-08-06 18:07:00,
2013-08-06 14:12:00,72.1,66.3,30.08,North,9,0.0,0.0,82,0.00,,,0.00,WeatherCatV1.20B785,2013-08-06 18:12:00,
2013-08-06 14:17:00,72.2,66.7,30.07,North,9,0.0,0.0,83,0.00,,,0.00,WeatherCatV1.20B785,2013-08-06 18:17:00,
2013-08-06 14:22:00,72.1,65.9,30.07,North,9,0.0,0.0,81,0.00,,,0.00,WeatherCatV1.20B785,2013-08-06 18:22:00,
2013-08-06 14:27:00,72.5,66.3,30.08,North,9,0.0,1.0,81,0.00,,,0.00,WeatherCatV1.20B785,2013-08-06 18:27:00,
2013-08-06 14:32:00,72.6,67.1,30.07,North,9,0.0,0.0,83,0.00,,,0.00,WeatherCatV1.20B785,2013-08-06 18:32:00,
2013-08-06 14:37:00,72.6,66.8,30.07,North,9,0.0,0.0,82,0.00,,,0.00,WeatherCatV1.20B785,2013-08-06 18:37:00,
2013-08-06 14:42:00,72.7,67.2,30.07,North,9,0.0,1.0,83,0.00,,,0.00,WeatherCatV1.20B785,2013-08-06 18:42:00,
2013-08-06 14:47:00,72.8,67.0,30.07,North,10,0.0,1.0,82,0.00,,,0.00,WeatherCatV1.20B785,2013-08-06 18:47:00,
2013-08-06 14:52:00,73.1,66.2,30.07,North,11,0.0,0.0,79,0.00,,,0.00,WeatherCatV1.20B785,2013-08-06 18:52:00,
2013-08-06 14:57:00,73.8,66.1,30.07,North,11,2.0,2.0,77,0.00,,,0.00,WeatherCatV1.20B785,2013-08-06 18:57:00,
2013-08-06 15:02:00,74.8,66.3,30.07,NNE,12,0.0,0.0,75,0.00,,,0.00,WeatherCatV1.20B785,2013-08-06 19:02:00,
2013-08-06 15:07:00,75.1,66.2,30.07,NNE,12,0.0,0.0,74,0.00,,,0.00,WeatherCatV1.20B785,2013-08-06 19:07:00,
2013-08-06 15:12:00,74.9,66.4,30.07,NNE,12,0.0,4.0,75,0.00,,,0.00,WeatherCatV1.20B785,2013-08-06 19:12:00,
2013-08-06 15:17:00,74.8,67.1,30.07,North,11,0.0,0.0,77,0.00,,,0.00,WeatherCatV1.20B785,2013-08-06 19:17:00,
2013-08-06 15:22:00,74.6,66.9,30.07,NNE,12,0.0,0.0,77,0.00,,,0.00,WeatherCatV1.20B785,2013-08-06 19:22:00,
2013-08-06 15:27:00,74.5,67.2,30.07,North,11,0.0,0.0,78,0.00,,,0.00,WeatherCatV1.20B785,2013-08-06 19:27:00,
2013-08-06 15:32:00,74.6,66.9,30.07,NNE,12,0.0,0.0,77,0.00,,,0.00,WeatherCatV1.20B785,2013-08-06 19:32:00,
2013-08-06 15:37:00,74.3,67.0,30.07,NNE,12,0.0,0.0,78,0.00,,,0.00,WeatherCatV1.20B785,2013-08-06 19:37:00,
2013-08-06 15:42:00,74.1,67.9,30.07,North,11,0.0,0.0,81,0.00,,,0.00,WeatherCatV1.20B785,2013-08-06 19:42:00,
2013-08-06 15:47:00,73.9,68.1,30.06,North,11,0.0,1.0,82,0.00,,,0.00,WeatherCatV1.20B785,2013-08-06 19:47:00,
2013-08-06 15:52:00,74.1,67.2,30.06,North,11,2.0,2.0,79,0.00,,,0.00,WeatherCatV1.20B785,2013-08-06 19:52:00,
2013-08-06 15:57:00,75.0,66.9,30.06,NNE,14,0.0,1.0,76,0.00,,,0.00,WeatherCatV1.20B785,2013-08-06 19:57:00,
2013-08-06 16:02:00,75.1,66.6,30.06,NNE,14,0.0,0.0,75,0.00,,,0.00,WeatherCatV1.20B785,2013-08-06 20:02:00,
2013-08-06 16:07:00,74.4,66.7,30.06,NNE,14,0.0,0.0,77,0.00,,,0.00,WeatherCatV1.20B785,2013-08-06 20:07:00,
2013-08-06 16:12:00,74.1,67.9,30.05,NNE,14,0.0,1.0,81,0.00,,,0.00,WeatherCatV1.20B785,2013-08-06 20:12:00,
2013-08-06 16:17:00,74.0,68.1,30.05,NNE,14,0.0,0.0,82,0.00,,,0.00,WeatherCatV1.20B785,2013-08-06 20:17:00,
2013-08-06 16:22:00,74.3,68.4,30.05,NNE,14,0.0,0.0,82,0.00,,,0.00,WeatherCatV1.20B785,2013-08-06 20:22:00,
2013-08-06 16:27:00,74.2,68.0,30.05,NNE,13,0.0,2.0,81,0.00,,,0.00,WeatherCatV1.20B785,2013-08-06 20:27:00,
2013-08-06 16:32:00,74.2,68.0,30.04,NNE,13,0.0,0.0,81,0.00,,,0.00,WeatherCatV1.20B785,2013-08-06 20:32:00,
2013-08-06 16:37:00,74.2,68.3,30.04,NNE,13,0.0,0.0,82,0.00,,,0.00,WeatherCatV1.20B785,2013-08-06 20:37:00,
2013-08-06 16:42:00,73.7,67.8,30.04,NNE,13,0.0,0.0,82,0.00,,,0.00,WeatherCatV1.20B785,2013-08-06 20:42:00,
2013-08-06 16:47:00,73.2,68.1,30.04,NNE,13,0.0,0.0,84,0.00,,,0.00,WeatherCatV1.20B785,2013-08-06 20:47:00,
2013-08-06 16:52:00,73.3,68.8,30.05,NNE,13,0.0,1.0,86,0.00,,,0.00,WeatherCatV1.20B785,2013-08-06 20:52:00,
2013-08-06 16:57:00,73.5,69.0,30.05,NNE,13,0.0,1.0,86,0.00,,,0.00,WeatherCatV1.20B785,2013-08-06 20:57:00,
2013-08-06 17:02:00,73.4,68.9,30.05,NNE,13,0.0,0.0,86,0.00,,,0.00,WeatherCatV1.20B785,2013-08-06 21:02:00,
2013-08-06 17:07:00,73.2,68.4,30.05,NNE,13,0.0,0.0,85,0.00,,,0.00,WeatherCatV1.20B785,2013-08-06 21:07:00,
2013-08-06 17:12:00,72.9,68.8,30.05,NNE,13,0.0,0.0,87,0.00,,,0.00,WeatherCatV1.20B785,2013-08-06 21:12:00,
2013-08-06 17:17:00,72.8,68.4,30.05,NNE,13,0.0,0.0,86,0.00,,,0.00,WeatherCatV1.20B785,2013-08-06 21:17:00,
2013-08-06 17:22:00,73.0,68.6,30.05,NE,34,0.0,1.0,86,0.00,,,0.00,WeatherCatV1.20B785,2013-08-06 21:22:00,
2013-08-06 17:27:00,72.9,68.1,30.05,SW,226,0.0,1.0,85,0.00,,,0.00,WeatherCatV1.20B785,2013-08-06 21:27:00,
2013-08-06 17:32:00,72.6,67.8,30.05,SE,144,0.0,0.0,85,0.00,,,0.00,WeatherCatV1.20B785,2013-08-06 21:32:00,
2013-08-06 17:37:00,72.4,68.0,30.05,SSE,158,3.0,4.0,86,0.00,,,0.00,WeatherCatV1.20B785,2013-08-06 21:37:00,
2013-08-06 17:42:00,72.2,67.4,30.05,SE,140,0.0,5.0,85,0.00,,,0.00,WeatherCatV1.20B785,2013-08-06 21:42:00,
2013-08-06 17:47:00,72.2,67.1,30.05,SE,146,0.0,4.0,84,0.00,,,0.00,WeatherCatV1.20B785,2013-08-06 21:47:00,
2013-08-06 17:52:00,72.3,67.9,30.05,SSE,155,0.0,0.0,86,0.00,,,0.00,WeatherCatV1.20B785,2013-08-06 21:52:00,
2013-08-06 17:57:00,72.2,68.1,30.05,WSW,249,0.0,0.0,87,0.00,,,0.00,WeatherCatV1.20B785,2013-08-06 21:57:00,
2013-08-06 18:02:00,72.1,68.3,30.06,ESE,118,0.0,1.0,88,0.00,,,0.00,WeatherCatV1.20B785,2013-08-06 22:02:00,
2013-08-06 18:07:00,72.3,68.2,30.06,North,355,0.0,0.0,87,0.00,,,0.00,WeatherCatV1.20B785,2013-08-06 22:07:00,
2013-08-06 18:12:00,72.3,68.2,30.06,WNW,287,0.0,0.0,87,0.00,,,0.00,WeatherCatV1.20B785,2013-08-06 22:12:00,
2013-08-06 18:17:00,72.2,68.1,30.06,WSW,249,0.0,1.0,87,0.00,,,0.00,WeatherCatV1.20B785,2013-08-06 22:17:00,
2013-08-06 18:22:00,72.1,68.0,30.06,WSW,241,0.0,1.0,87,0.00,,,0.00,WeatherCatV1.20B785,2013-08-06 22:22:00,
2013-08-06 18:27:00,71.9,67.8,30.06,WSW,241,0.0,1.0,87,0.00,,,0.00,WeatherCatV1.20B785,2013-08-06 22:27:00,
2013-08-06 18:32:00,71.6,67.5,30.06,East,94,0.0,0.0,87,0.00,,,0.00,WeatherCatV1.20B785,2013-08-06 22:32:00,
2013-08-06 18:37:00,71.2,67.4,30.06,SE,142,0.0,0.0,88,0.00,,,0.00,WeatherCatV1.20B785,2013-08-06 22:37:00,
2013-08-06 18:42:00,70.7,67.0,30.06,East,90,0.0,1.0,88,0.00,,,0.00,WeatherCatV1.20B785,2013-08-06 22:42:00,
2013-08-06 18:47:00,70.2,66.8,30.06,South,172,0.0,1.0,89,0.00,,,0.00,WeatherCatV1.20B785,2013-08-06 22:47:00,
2013-08-06 18:52:00,69.9,67.2,30.06,WSW,246,0.0,0.0,91,0.00,,,0.00,WeatherCatV1.20B785,2013-08-06 22:52:00,
2013-08-06 18:57:00,69.7,66.9,30.06,ESE,105,0.0,0.0,91,0.00,,,0.00,WeatherCatV1.20B785,2013-08-06 22:57:00,
2013-08-06 19:02:00,69.4,66.7,30.06,SE,132,0.0,5.0,91,0.00,,,0.00,WeatherCatV1.20B785,2013-08-06 23:02:00,
2013-08-06 19:07:00,69.2,66.4,30.06,SSE,165,0.0,1.0,91,0.00,,,0.00,WeatherCatV1.20B785,2013-08-06 23:07:00,
2013-08-06 19:12:00,69.0,66.3,30.06,ESE,118,0.0,5.0,91,0.00,,,0.00,WeatherCatV1.20B785,2013-08-06 23:12:00,
2013-08-06 19:17:00,68.7,66.3,30.06,ESE,117,0.0,0.0,92,0.00,,,0.00,WeatherCatV1.20B785,2013-08-06 23:17:00,
2013-08-06 19:22:00,68.4,66.3,30.06,SE,126,0.0,1.0,93,0.00,,,0.00,WeatherCatV1.20B785,2013-08-06 23:22:00,
2013-08-06 19:27:00,68.2,66.1,30.06,SE,126,0.0,0.0,93,0.00,,,0.00,WeatherCatV1.20B785,2013-08-06 23:27:00,
2013-08-06 19:32:00,68.1,66.0,30.06,NE,38,0.0,0.0,93,0.00,,,0.00,WeatherCatV1.20B785,2013-08-06 23:32:00,
2013-08-06 19:37:00,68.0,65.9,30.06,NE,36,0.0,1.0,93,0.00,,,0.00,WeatherCatV1.20B785,2013-08-06 23:37:00,
2013-08-06 19:42:00,67.9,65.8,30.06,WSW,258,0.0,1.0,93,0.00,,,0.00,WeatherCatV1.20B785,2013-08-06 23:42:00,
2013-08-06 19:47:00,67.7,65.9,30.06,SE,142,0.0,3.0,94,0.00,,,0.00,WeatherCatV1.20B785,2013-08-06 23:47:00,
2013-08-06 19:52:00,67.6,65.8,30.06,SE,126,0.0,1.0,94,0.00,,,0.00,WeatherCatV1.20B785,2013-08-06 23:52:00,
2013-08-06 19:57:00,67.5,65.7,30.06,NW,311,0.0,0.0,94,0.00,,,0.00,WeatherCatV1.20B785,2013-08-06 23:57:00,
2013-08-06 20:02:00,67.4,65.9,30.06,NNE,33,0.0,1.0,95,0.00,,,0.00,WeatherCatV1.20B785,2013-08-07 00:02:00,
2013-08-06 20:07:00,67.1,65.6,30.07,NNW,344,0.0,2.0,95,0.00,,,0.00,WeatherCatV1.20B785,2013-08-07 00:07:00,
2013-08-06 20:12:00,66.9,65.7,30.07,SSE,167,0.0,4.0,96,0.00,,,0.00,WeatherCatV1.20B785,2013-08-07 00:12:00,
2013-08-06 20:17:00,66.6,65.4,30.07,SSE,161,0.0,1.0,96,0.00,,,0.00,WeatherCatV1.20B785,2013-08-07 00:17:00,
2013-08-06 20:22:00,66.3,65.1,30.07,SSE,150,0.0,1.0,96,0.00,,,0.00,WeatherCatV1.20B785,2013-08-07 00:22:00,
2013-08-06 20:27:00,66.1,64.9,30.07,SSE,165,0.0,1.0,96,0.00,,,0.00,WeatherCatV1.20B785,2013-08-07 00:27:00,
2013-08-06 20:32:00,66.0,64.8,30.07,SE,130,0.0,2.0,96,0.00,,,0.00,WeatherCatV1.20B785,2013-08-07 00:32:00,
2013-08-06 20:37:00,65.8,64.9,30.07,SSE,155,0.0,1.0,97,0.00,,,0.00,WeatherCatV1.20B785,2013-08-07 00:37:00,
2013-08-06 20:42:00,65.8,64.9,30.07,SSE,151,0.0,0.0,97,0.00,,,0.00,WeatherCatV1.20B785,2013-08-07 00:42:00,
2013-08-06 20:47:00,65.7,64.8,30.08,SSE,153,0.0,0.0,97,0.00,,,0.00,WeatherCatV1.20B785,2013-08-07 00:47:00,
2013-08-06 20:52:00,65.6,64.7,30.08,SSE,153,0.0,0.0,97,0.00,,,0.00,WeatherCatV1.20B785,2013-08-07 00:52:00,
2013-08-06 20:57:00,65.5,64.6,30.08,SSE,168,0.0,3.0,97,0.00,,,0.00,WeatherCatV1.20B785,2013-08-07 00:57:00,
2013-08-06 21:02:00,65.4,64.5,30.08,SSE,167,0.0,4.0,97,0.00,,,0.00,WeatherCatV1.20B785,2013-08-07 01:02:00,
2013-08-06 21:07:00,65.3,64.4,30.08,SSE,165,0.0,0.0,97,0.00,,,0.00,WeatherCatV1.20B785,2013-08-07 01:07:00,
2013-08-06 21:12:00,65.2,64.3,30.07,ESE,113,0.0,0.0,97,0.00,,,0.00,WeatherCatV1.20B785,2013-08-07 01:12:00,
2013-08-06 21:17:00,65.1,64.2,30.08,SE,133,0.0,2.0,97,0.00,,,0.00,WeatherCatV1.20B785,2013-08-07 01:17:00,
2013-08-06 21:20:00,65.1,64.2,30.08,SE,134,0.0,0.0,97,0.00,,,0.00,WeatherCatV1.20B785,2013-08-07 01:20:00,
2013-08-06 21:25:00,65.1,64.5,30.08,SSE,160,0.0,2.0,98,0.00,,,0.00,WeatherCatV1.20B785,2013-08-07 01:25:00,
2013-08-06 21:29:00,65.1,64.5,30.08,SSE,161,0.0,0.0,98,0.00,,,0.00,WeatherCatV1.20B785,2013-08-07 01:29:00,
2013-08-06 21:33:00,65.0,64.1,30.08,SSE,163,0.0,3.0,97,0.00,,,0.00,WeatherCatV1.20B785,2013-08-07 01:33:00,
2013-08-06 21:38:00,65.0,64.4,30.08,SSE,163,0.0,0.0,98,0.00,,,0.00,WeatherCatV1.20B785,2013-08-07 01:38:00,
2013-08-06 21:43:00,65.0,64.4,30.08,SSE,163,0.0,0.0,98,0.00,,,0.00,WeatherCatV1.20B785,2013-08-07 01:43:00,
2013-08-06 21:48:00,65.0,64.4,30.09,SSE,152,1.0,1.0,98,0.00,,,0.00,WeatherCatV1.20B785,2013-08-07 01:48:00,
2013-08-06 21:53:00,65.0,64.4,30.09,SSE,159,0.0,0.0,98,0.00,,,0.00,WeatherCatV1.20B785,2013-08-07 01:53:00,
2013-08-06 21:58:00,65.0,64.4,30.09,SSE,159,0.0,0.0,98,0.00,,,0.00,WeatherCatV1.20B785,2013-08-07 01:58:00,
2013-08-06 22:03:00,65.0,64.4,30.09,SSE,153,0.0,1.0,98,0.00,,,0.00,WeatherCatV1.20B785,2013-08-07 02:03:00,
2013-08-06 22:08:00,65.0,64.4,30.09,SE,128,0.0,2.0,98,0.00,,,0.00,WeatherCatV1.20B785,2013-08-07 02:08:00,
2013-08-06 22:13:00,65.0,64.4,30.09,East,88,0.0,1.0,98,0.00,,,0.00,WeatherCatV1.20B785,2013-08-07 02:13:00,
2013-08-06 22:18:00,65.0,64.4,30.09,East,88,0.0,0.0,98,0.00,,,0.00,WeatherCatV1.20B785,2013-08-07 02:18:00,
2013-08-06 22:23:00,64.9,64.3,30.09,East,88,0.0,1.0,98,0.00,,,0.00,WeatherCatV1.20B785,2013-08-07 02:23:00,
2013-08-06 22:28:00,64.9,64.3,30.09,East,88,0.0,0.0,98,0.00,,,0.00,WeatherCatV1.20B785,2013-08-07 02:28:00,
2013-08-06 22:33:00,64.9,64.3,30.10,ESE,103,0.0,0.0,98,0.00,,,0.00,WeatherCatV1.20B785,2013-08-07 02:33:00,
2013-08-06 22:38:00,64.9,64.3,30.10,ESE,103,0.0,0.0,98,0.00,,,0.00,WeatherCatV1.20B785,2013-08-07 02:38:00,
2013-08-06 22:43:00,64.8,64.2,30.10,ESE,103,0.0,0.0,98,0.00,,,0.00,WeatherCatV1.20B785,2013-08-07 02:43:00,
2013-08-06 22:48:00,64.8,64.2,30.10,ESE,103,0.0,0.0,98,0.00,,,0.00,WeatherCatV1.20B785,2013-08-07 02:48:00,
2013-08-06 22:53:00,64.8,64.2,30.10,ESE,103,0.0,0.0,98,0.00,,,0.00,WeatherCatV1.20B785,2013-08-07 02:53:00,
2013-08-06 22:58:00,64.8,64.2,30.10,ESE,103,0.0,0.0,98,0.00,,,0.00,WeatherCatV1.20B785,2013-08-07 02:58:00,
2013-08-06 23:03:00,64.8,64.2,30.10,ESE,103,0.0,0.0,98,0.00,,,0.00,WeatherCatV1.20B785,2013-08-07 03:03:00,
2013-08-06 23:08:00,64.8,64.2,30.10,ESE,103,0.0,1.0,98,0.00,,,0.00,WeatherCatV1.20B785,2013-08-07 03:08:00,
2013-08-06 23:13:00,64.7,64.1,30.10,ESE,103,0.0,0.0,98,0.00,,,0.00,WeatherCatV1.20B785,2013-08-07 03:13:00,
2013-08-06 23:18:00,64.7,64.1,30.10,NE,38,0.0,1.0,98,0.00,,,0.00,WeatherCatV1.20B785,2013-08-07 03:18:00,
2013-08-06 23:23:00,64.7,64.1,30.10,NE,37,0.0,1.0,98,0.00,,,0.00,WeatherCatV1.20B785,2013-08-07 03:23:00,
2013-08-06 23:28:00,64.6,64.0,30.10,East,84,0.0,2.0,98,0.00,,,0.00,WeatherCatV1.20B785,2013-08-07 03:28:00,
2013-08-06 23:33:00,64.6,64.0,30.10,WSW,242,0.0,0.0,98,0.00,,,0.00,WeatherCatV1.20B785,2013-08-07 03:33:00,
2013-08-06 23:38:00,64.6,64.0,30.10,SSE,161,0.0,0.0,98,0.00,,,0.00,WeatherCatV1.20B785,2013-08-07 03:38:00,
2013-08-06 23:43:00,64.6,64.0,30.10,SSE,168,0.0,2.0,98,0.00,,,0.00,WeatherCatV1.20B785,2013-08-07 03:43:00,
2013-08-06 23:48:00,64.6,64.0,30.10,SSE,168,0.0,0.0,98,0.00,,,0.00,WeatherCatV1.20B785,2013-08-07 03:48:00,
2013-08-06 23:53:00,64.6,64.3,30.10,SSE,168,0.0,0.0,99,0.00,,,0.00,WeatherCatV1.20B785,2013-08-07 03:53:00,
2013-08-06 23:58:00,64.6,64.3,30.10,SSE,168,0.0,0.0,99,0.00,,,0.00,WeatherCatV1.20B785,2013-08-07 03:58:00,